When you browse on this site, cookies collect data to enhance your experience and personalize the content and advertising you see.
Visit our Privacy Policy to learn more. By continuing to use the site, you agree to this use of cookies and data.
  • In Hungary
  • List of Countries
  • For 7 days
  • Water Temperature
  • Weather Map
  • News
  • Weather Widgets
  • user-avatar
    Login

    Hourly Weather Calendario

    Today, 20 November, Wednesday

    Time Temperature Precipitation Wind Pressure Humidity
    00:00 +9°C° 0.2 mm 2 mps 748 mmHg 92%
    01:00 +9°C° 0.2 mm 2 mps 747 mmHg 92%
    02:00 +9°C° 0.2 mm 2 mps 747 mmHg 93%
    03:00 +9°C° 0.2 mm 2 mps 746 mmHg 93%
    04:00 +9°C° 0.2 mm 2 mps 746 mmHg 93%
    05:00 +10°C° 0 mm 2 mps 746 mmHg 93%
    06:00 +10°C° 0 mm 2 mps 746 mmHg 93%
    07:00 +10°C° 0 mm 2 mps 746 mmHg 92%
    08:00 +10°C° 0 mm 3 mps 746 mmHg 91%
    09:00 +11°C° 0.2 mm 3 mps 745 mmHg 89%
    10:00 +11°C° 0.2 mm 4 mps 745 mmHg 87%
    11:00 +11°C° 0.2 mm 4 mps 745 mmHg 85%
    12:00 +12°C° 0.9 mm 4 mps 744 mmHg 84%
    13:00 +12°C° 0.9 mm 4 mps 744 mmHg 83%
    14:00 +12°C° 0.9 mm 4 mps 743 mmHg 82%
    15:00 +11°C° 0.6 mm 3 mps 743 mmHg 84%
    16:00 +10°C° 0.6 mm 3 mps 744 mmHg 86%
    17:00 +10°C° 0.6 mm 3 mps 744 mmHg 89%
    18:00 +9°C° 0.7 mm 3 mps 744 mmHg 89%
    19:00 +9°C° 0.7 mm 2 mps 744 mmHg 90%
    20:00 +9°C° 0.7 mm 2 mps 745 mmHg 91%
    21:00 +9°C° 0.6 mm 2 mps 745 mmHg 91%
    22:00 +9°C° 0.6 mm 2 mps 745 mmHg 91%
    23:00 +9°C° 0.6 mm 2 mps 745 mmHg 92%

    Tomorrow, 21 November, Thursday

    Time Temperature Precipitation Wind Pressure Humidity
    00:00 +9°C° 0.5 mm 2 mps 745 mmHg 92%
    01:00 +9°C° 0.5 mm 2 mps 745 mmHg 92%
    02:00 +9°C° 0.5 mm 2 mps 745 mmHg 92%
    03:00 +10°C° 0.3 mm 1 mps 745 mmHg 93%
    04:00 +9°C° 0.3 mm 1 mps 745 mmHg 93%
    05:00 +9°C° 0.3 mm 1 mps 745 mmHg 94%
    06:00 +9°C° 0.2 mm 1 mps 745 mmHg 93%
    07:00 +10°C° 0.2 mm 1 mps 745 mmHg 92%
    08:00 +10°C° 0.2 mm 1 mps 745 mmHg 91%
    09:00 +12°C° 0.2 mm 2 mps 745 mmHg 85%
    10:00 +13°C° 0.2 mm 2 mps 745 mmHg 79%
    11:00 +14°C° 0.2 mm 2 mps 745 mmHg 73%
    12:00 +14°C° 0.2 mm 2 mps 745 mmHg 73%
    13:00 +13°C° 0.2 mm 3 mps 744 mmHg 73%
    14:00 +13°C° 0.2 mm 3 mps 744 mmHg 73%
    15:00 +12°C° 0.2 mm 3 mps 744 mmHg 78%
    16:00 +11°C° 0.2 mm 3 mps 744 mmHg 83%
    17:00 +10°C° 0.2 mm 2 mps 744 mmHg 88%
    18:00 +10°C° 0.1 mm 3 mps 743 mmHg 89%
    19:00 +10°C° 0.1 mm 4 mps 743 mmHg 90%
    20:00 +10°C° 0.1 mm 4 mps 743 mmHg 91%
    21:00 +9°C° 1.6 mm 5 mps 741 mmHg 92%
    22:00 +9°C° 1.6 mm 6 mps 740 mmHg 92%
    23:00 +9°C° 1.6 mm 7 mps 739 mmHg 92%

    Day after tomorrow, 22 November, Friday

    Time Temperature Precipitation Wind Pressure Humidity
    00:00 +10°C° 5.8 mm 7 mps 738 mmHg 94%
    01:00 +10°C° 5.8 mm 6 mps 737 mmHg 95%
    02:00 +10°C° 5.8 mm 6 mps 736 mmHg 96%
    03:00 +11°C° 3.2 mm 6 mps 735 mmHg 96%
    04:00 +13°C° 3.2 mm 6 mps 734 mmHg 97%
    05:00 +13°C° 3.2 mm 6 mps 733 mmHg 97%
    06:00 +12°C° 1.3 mm 7 mps 732 mmHg 93%
    07:00 +12°C° 1.3 mm 7 mps 732 mmHg 89%
    08:00 +12°C° 1.3 mm 8 mps 732 mmHg 86%
    09:00 +12°C° 0.6 mm 8 mps 732 mmHg 84%
    10:00 +12°C° 0.6 mm 8 mps 732 mmHg 82%
    11:00 +12°C° 0.6 mm 8 mps 732 mmHg 81%
    12:00 +12°C° 0.9 mm 9 mps 732 mmHg 82%
    13:00 +12°C° 0.9 mm 10 mps 732 mmHg 84%
    14:00 +12°C° 0.9 mm 10 mps 732 mmHg 85%
    15:00 +12°C° 1.2 mm 10 mps 732 mmHg 85%
    16:00 +11°C° 1.2 mm 10 mps 733 mmHg 85%
    17:00 +11°C° 1.2 mm 10 mps 734 mmHg 84%
    18:00 +9°C° 1.4 mm 10 mps 735 mmHg 85%
    19:00 +10°C° 1.4 mm 9 mps 736 mmHg 85%
    20:00 +8°C° 1.4 mm 9 mps 737 mmHg 85%
    21:00 +9°C° 0.6 mm 8 mps 738 mmHg 84%
    22:00 +9°C° 0.6 mm 7 mps 739 mmHg 82%
    23:00 +8°C° 0.6 mm 6 mps 740 mmHg 81%

    23 November, Saturday

    Time Temperature Precipitation Wind Pressure Humidity
    00:00 +8°C° 0.2 mm 6 mps 740 mmHg 81%
    01:00 +8°C° 0.2 mm 6 mps 741 mmHg 82%
    02:00 +7°C° 0.2 mm 5 mps 741 mmHg 83%
    03:00 +7°C° 0.1 mm 5 mps 742 mmHg 83%
    04:00 +8°C° 0.1 mm 5 mps 742 mmHg 84%
    05:00 +8°C° 0.1 mm 5 mps 743 mmHg 84%
    06:00 +8°C° 0.1 mm 5 mps 744 mmHg 84%
    07:00 +9°C° 0.1 mm 5 mps 744 mmHg 84%
    08:00 +10°C° 0.1 mm 4 mps 745 mmHg 84%
    09:00 +10°C° 0.2 mm 5 mps 745 mmHg 80%
    10:00 +11°C° 0.2 mm 6 mps 746 mmHg 77%
    11:00 +13°C° 0.2 mm 6 mps 747 mmHg 73%
    12:00 +13°C° 0.1 mm 6 mps 747 mmHg 73%
    13:00 +13°C° 0.1 mm 6 mps 747 mmHg 73%
    14:00 +13°C° 0.1 mm 6 mps 747 mmHg 73%
    15:00 +11°C° 0.2 mm 6 mps 748 mmHg 78%
    16:00 +10°C° 0.2 mm 5 mps 748 mmHg 82%
    17:00 +9°C° 0.2 mm 5 mps 749 mmHg 87%
    18:00 +10°C° 0.1 mm 4 mps 750 mmHg 88%
    19:00 +10°C° 0.1 mm 4 mps 750 mmHg 89%
    20:00 +10°C° 0.1 mm 3 mps 751 mmHg 89%
    21:00 +9°C° 0 mm 3 mps 751 mmHg 90%
    22:00 +9°C° 0 mm 2 mps 751 mmHg 90%
    23:00 +8°C° 0 mm 2 mps 752 mmHg 90%

    24 November, Sunday

    Time Temperature Precipitation Wind Pressure Humidity
    00:00 +9°C° 0 mm 1 mps 752 mmHg 90%
    01:00 +9°C° 0 mm 1 mps 752 mmHg 89%
    02:00 +9°C° 0 mm 1 mps 752 mmHg 89%
    03:00 +9°C° 0 mm 1 mps 752 mmHg 88%
    04:00 +10°C° 0 mm 1 mps 752 mmHg 88%
    05:00 +10°C° 0 mm 1 mps 753 mmHg 87%
    06:00 +10°C° 0 mm 1 mps 753 mmHg 87%
    07:00 +10°C° 0 mm 1 mps 753 mmHg 86%
    08:00 +11°C° 0 mm 1 mps 754 mmHg 85%
    09:00 +12°C° 0 mm 1 mps 754 mmHg 79%
    10:00 +13°C° 0 mm 1 mps 754 mmHg 73%
    11:00 +14°C° 0 mm 2 mps 754 mmHg 67%
    12:00 +14°C° 0 mm 2 mps 754 mmHg 68%
    13:00 +14°C° 0 mm 2 mps 753 mmHg 69%
    14:00 +14°C° 0 mm 2 mps 753 mmHg 70%
    15:00 +13°C° 0 mm 2 mps 753 mmHg 72%
    16:00 +13°C° 0 mm 2 mps 753 mmHg 74%
    17:00 +13°C° 0 mm 2 mps 754 mmHg 75%
    18:00 +13°C° 0 mm 2 mps 754 mmHg 76%
    19:00 +12°C° 0 mm 3 mps 754 mmHg 77%
    20:00 +11°C° 0 mm 3 mps 754 mmHg 78%
    21:00 +11°C° 0.1 mm 3 mps 754 mmHg 80%
    22:00 +11°C° 0.1 mm 3 mps 754 mmHg 82%
    23:00 +11°C° 0.1 mm 3 mps 754 mmHg 84%

    25 November, Monday

    Time Temperature Precipitation Wind Pressure Humidity
    00:00 +11°C° 0.2 mm 3 mps 754 mmHg 86%
    01:00 +11°C° 0.2 mm 3 mps 754 mmHg 87%
    02:00 +11°C° 0.2 mm 4 mps 754 mmHg 89%
    03:00 +11°C° 0.5 mm 4 mps 754 mmHg 90%
    04:00 +12°C° 0.5 mm 4 mps 754 mmHg 91%
    05:00 +12°C° 0.5 mm 4 mps 754 mmHg 93%
    06:00 +12°C° 0.4 mm 4 mps 754 mmHg 93%
    07:00 +12°C° 0.4 mm 4 mps 754 mmHg 93%
    08:00 +12°C° 0.4 mm 4 mps 754 mmHg 93%
    09:00 +13°C° 0.3 mm 4 mps 754 mmHg 93%
    10:00 +13°C° 0.3 mm 4 mps 754 mmHg 93%
    11:00 +13°C° 0.3 mm 4 mps 754 mmHg 93%
    12:00 +13°C° 0.4 mm 4 mps 754 mmHg 94%
    13:00 +14°C° 0.4 mm 4 mps 754 mmHg 95%
    14:00 +14°C° 0.4 mm 4 mps 753 mmHg 96%
    15:00 +14°C° 0.8 mm 4 mps 753 mmHg 96%
    16:00 +14°C° 0.8 mm 4 mps 753 mmHg 96%
    17:00 +14°C° 0.8 mm 4 mps 753 mmHg 96%
    18:00 +14°C° 0.3 mm 4 mps 754 mmHg 97%
    19:00 +14°C° 0.3 mm 4 mps 754 mmHg 97%
    20:00 +14°C° 0.3 mm 3 mps 754 mmHg 97%
    21:00 +14°C° 0.2 mm 3 mps 754 mmHg 97%
    22:00 +14°C° 0.2 mm 3 mps 754 mmHg 97%
    23:00 +14°C° 0.2 mm 3 mps 754 mmHg 97%
    Show more